DJ3OW-13 Weather Reports


Display with metric or nautical units.
time (UTC)temp
F
wind
direction
speed
MPH
gust
MPH
rain 1hr
in
rain 24hr
in
rain mn
in
humidity
%
barometer
mb
20260504012113 58 0.0 2.0 0.00 0.00 0.00 71 1014.6
20260504011111 58 293 0.0 2.0 0.00 0.00 0.00 69 1014.6
20260504010109 59 289 1.0 2.0 0.00 0.00 0.00 67 1014.7
20260504005127 59 270 1.0 4.0 0.00 0.00 0.00 68 1014.9
20260504004105 58 254 0.0 2.0 0.00 0.00 0.00 69 1014.8
20260504003103 59 0.0 0.0 0.00 0.00 0.00 69 1014.6
20260504002101 59 0.0 0.0 0.00 0.00 0.00 67 1014.6
20260504001059 60 248 0.0 2.0 0.00 0.00 0.00 66 1014.6
20260504000057 60 248 0.0 2.0 0.00 0.00 0.00 66 1014.7
20260503235055 61 203 0.0 2.0 0.00 0.00 0.00 65 1014.7
20260503234053 61 180 0.0 2.0 0.00 0.00 0.00 65 1014.9
20260503233051 61 0.0 2.0 0.00 0.00 0.00 64 1014.8
20260503232049 61 266 1.0 4.0 0.00 0.00 0.00 64 1014.8
20260503231107 61 266 1.0 4.0 0.00 0.00 0.00 64 1014.8
20260503230045 62 269 1.0 4.0 0.00 0.00 0.00 63 1014.9
20260503225103 62 293 0.0 2.0 0.00 0.00 0.00 62 1014.8
20260503224041 63 250 1.0 4.0 0.00 0.00 0.00 61 1015.0
20260503223039 63 258 2.0 7.0 0.00 0.00 0.00 61 1015.0
20260503222037 63 248 1.0 4.0 0.00 0.00 0.00 61 1015.1
20260503221035 63 257 3.0 7.0 0.00 0.00 0.00 61 1015.2
20260503220033 63 256 1.0 4.0 0.00 0.00 0.00 62 1015.3
20260503215031 63 251 1.0 4.0 0.00 0.00 0.00 61 1015.5
20260503214049 64 277 1.0 4.0 0.00 0.00 0.00 60 1015.3
20260503213027 64 248 1.0 2.0 0.00 0.00 0.00 58 1015.4
20260503212025 65 270 1.0 4.0 0.00 0.00 0.00 56 1015.3
20260503211023 65 292 2.0 4.0 0.00 0.00 0.00 56 1015.1
20260503210021 65 260 2.0 4.0 0.00 0.00 0.00 55 1015.1
20260503205019 65 248 1.0 4.0 0.00 0.00 0.00 55 1015.0
20260503204017 65 271 2.0 4.0 0.00 0.00 0.00 54 1015.1
20260503203015 66 283 3.0 4.0 0.00 0.00 0.00 53 1015.1
20260503202133 66 268 3.0 6.0 0.00 0.00 0.00 52 1015.1
20260503201111 66 264 3.0 9.0 0.00 0.00 0.00 51 1015.0
20260503200109 67 250 3.0 8.0 0.00 0.00 0.00 49 1015.0
20260503195107 67 273 3.0 7.0 0.00 0.00 0.00 48 1015.1
20260503194105 67 286 2.0 6.0 0.00 0.00 0.00 49 1014.8
20260503193102 66 270 3.0 4.0 0.00 0.00 0.00 50 1014.5
20260503192100 65 267 3.0 4.0 0.00 0.00 0.00 51 1014.4
20260503191118 66 263 1.0 2.0 0.00 0.00 0.00 48 1014.1
20260503190056 67 248 0.0 2.0 0.00 0.00 0.00 47 1014.0
20260503185055 67 254 0.0 2.0 0.00 0.00 0.00 46 1013.9
20260503184052 67 335 1.0 4.0 0.00 0.00 0.00 44 1013.8
20260503183050 68 288 1.0 2.0 0.00 0.00 0.00 44 1013.8
20260503182048 68 272 1.0 4.0 0.00 0.00 0.00 43 1013.7
20260503181046 69 103 1.0 6.0 0.00 0.00 0.00 43 1013.6
20260503180044 69 298 1.0 4.0 0.00 0.00 0.00 42 1013.7
20260503175042 69 333 0.0 2.0 0.00 0.00 0.00 41 1013.6
20260503174040 70 16 2.0 4.0 0.00 0.00 0.00 39 1013.5
20260503173038 70 275 2.0 7.0 0.00 0.00 0.00 38 1013.6
20260503172036 71 258 2.0 8.0 0.00 0.00 0.00 37 1013.6
20260503171034 71 325 2.0 4.0 0.00 0.00 0.00 37 1013.6
20260503160110 71 0.0 0.0 0.00 0.00 0.00 48 1013.7
20260503131015 70 248 0.0 2.0 0.00 0.00 0.00 49 1014.9
20260503130133 70 0.0 2.0 0.00 0.00 0.00 49 1015.0
20260503081015 67 171 2.0 6.0 0.00 0.00 0.00 51 1016.3
20260503080113 67 182 2.0 6.0 0.00 0.00 0.00 51 1016.1
20260503072125 63 90 0.0 2.0 0.00 0.00 0.00 62 1015.9
20260503071103 61 0.0 2.0 0.00 0.00 0.00 65 1015.8
20260503070121 60 84 1.0 4.0 0.00 0.00 0.00 68 1015.8
20260503055047 51 116 2.0 4.0 0.00 0.00 0.00 81 1015.3
20260503054105 50 113 2.0 6.0 0.00 0.00 0.00 81 1015.3
20260503053042 50 105 1.0 4.0 0.00 0.00 0.00 82 1015.3
20260503052040 49 102 2.0 4.0 0.00 0.00 0.00 84 1015.3
20260503051039 48 99 3.0 6.0 0.00 0.00 0.00 86 1015.4
20260503050037 47 109 4.0 7.0 0.00 0.00 0.00 86 1015.4
20260503045034 47 105 2.0 4.0 0.00 0.00 0.00 87 1015.3
20260503044032 47 110 1.0 4.0 0.00 0.00 0.00 87 1015.4
20260503043030 48 103 2.0 4.0 0.00 0.00 0.00 86 1015.5
20260503042028 48 113 2.0 4.0 0.00 0.00 0.00 87 1015.6
20260503041026 48 113 1.0 2.0 0.00 0.00 0.00 87 1015.6
20260503040024 48 113 0.0 2.0 0.00 0.00 0.00 87 1015.8
20260503035043 48 113 0.0 2.0 0.00 0.00 0.00 88 1015.8
20260503034021 48 113 1.0 2.0 0.00 0.00 0.00 87 1015.8
20260503033018 49 113 1.0 2.0 0.00 0.00 0.00 87 1015.7
20260503032016 49 0.0 0.0 0.00 0.00 0.00 85 1015.9
20260503031116 50 129 1.0 2.0 0.00 0.00 0.00 86 1015.8
20260503030113 49 124 1.0 4.0 0.00 0.00 0.00 87 1015.9
20260503025150 49 135 0.0 2.0 0.00 0.00 0.00 87 1015.9
20260503024208 49 0.0 2.0 0.00 0.00 0.00 86 1016.0
20260503023126 50 135 0.0 2.0 0.00 0.00 0.00 84 1016.0
20260503022104 50 135 0.0 2.0 0.00 0.00 0.00 84 1016.0
20260503021103 50 0.0 0.0 0.00 0.00 0.00 84 1016.1
20260503020140 50 0.0 0.0 0.00 0.00 0.00 83 1016.3
20260503015118 50 0.0 0.0 0.00 0.00 0.00 83 1016.2
20260503014056 51 0.0 2.0 0.00 0.00 0.00 83 1016.3
20260503013054 51 0.0 2.0 0.00 0.00 0.00 82 1016.5